Time,TemperatureF,DewpointF,PressureIn,WindDirection,WindDirectionDegrees,WindSpeedMPH,WindSpeedGustMPH,Humidity,HourlyPrecipIn,Conditions,Clouds,dailyrainin,SoftwareType,DateUTC
2013-01-27 00:00:00,18.5,14.2,30.48,ESE,112,0.0,0.0,83,0.00,,SKC,0.00,VWS V14.01,2013-01-27 05:00:00,
2013-01-27 00:30:00,18.8,14.2,30.46,ESE,112,0.0,3.0,82,0.00,,SKC,0.00,VWS V14.01,2013-01-27 05:30:00,
2013-01-27 01:00:00,18.6,14.0,30.49,ESE,112,0.0,3.0,82,0.00,,SKC,0.00,VWS V14.01,2013-01-27 06:00:00,
2013-01-27 01:30:00,17.5,13.5,30.48,ESE,112,0.0,0.0,84,0.00,,SKC,0.00,VWS V14.01,2013-01-27 06:30:00,
2013-01-27 02:00:00,16.6,12.6,30.48,ESE,112,0.0,0.0,84,0.00,,SKC,0.00,VWS V14.01,2013-01-27 07:00:00,
2013-01-27 02:30:00,16.3,12.9,30.48,ESE,112,0.0,0.0,86,0.00,,SKC,0.00,VWS V14.01,2013-01-27 07:30:00,
2013-01-27 03:00:00,16.5,13.1,30.49,ESE,112,0.0,0.0,86,0.00,,SKC,0.00,VWS V14.01,2013-01-27 08:00:00,
2013-01-27 03:30:00,17.7,14.0,30.46,SSE,158,0.0,2.0,85,0.00,,SKC,0.00,VWS V14.01,2013-01-27 08:30:00,
2013-01-27 04:00:00,18.8,14.5,30.47,SE,135,1.0,4.0,83,0.00,,SKC,0.00,VWS V14.01,2013-01-27 09:00:00,
2013-01-27 04:30:00,17.9,13.9,30.48,SE,135,0.0,2.0,84,0.00,,SKC,0.00,VWS V14.01,2013-01-27 09:30:00,
2013-01-27 05:00:00,17.3,13.8,30.47,ENE,68,0.0,1.0,86,0.00,,SKC,0.00,VWS V14.01,2013-01-27 10:00:00,
2013-01-27 05:30:00,16.8,13.6,30.46,ENE,68,0.0,1.0,87,0.00,,SKC,0.00,VWS V14.01,2013-01-27 10:30:00,
2013-01-27 06:00:00,16.3,13.4,30.46,ENE,68,0.0,0.0,88,0.00,,SKC,0.00,VWS V14.01,2013-01-27 11:00:00,
2013-01-27 06:30:00,17.9,14.9,30.46,SSE,158,0.0,4.0,88,0.00,,SKC,0.00,VWS V14.01,2013-01-27 11:30:00,
2013-01-27 07:00:00,19.3,15.3,30.46,SE,135,1.0,6.0,84,0.00,,SKC,0.00,VWS V14.01,2013-01-27 12:00:00,
2013-01-27 07:30:00,19.6,15.6,30.47,SE,135,1.0,4.0,84,0.00,,SKC,0.00,VWS V14.01,2013-01-27 12:30:00,
2013-01-27 08:00:00,19.9,15.6,30.49,SSE,158,1.0,5.0,83,0.00,,SKC,0.00,VWS V14.01,2013-01-27 13:00:00,
2013-01-27 08:30:00,20.6,16.5,30.47,ESE,112,0.0,3.0,84,0.00,,SKC,0.00,VWS V14.01,2013-01-27 13:30:00,
2013-01-27 09:00:00,21.9,17.3,30.45,SE,135,1.0,6.0,82,0.00,,SKC,0.00,VWS V14.01,2013-01-27 14:00:00,
2013-01-27 09:30:00,23.1,17.9,30.46,SE,135,3.0,11.0,80,0.00,,SKC,0.00,VWS V14.01,2013-01-27 14:30:00,
2013-01-27 10:00:00,24.3,19.0,30.45,SSE,158,3.0,9.0,80,0.00,,SKC,0.00,VWS V14.01,2013-01-27 15:00:00,
2013-01-27 10:30:00,25.9,20.3,30.46,SE,135,3.0,11.0,79,0.00,,SKC,0.00,VWS V14.01,2013-01-27 15:30:00,
2013-01-27 11:00:00,27.5,21.5,30.46,SE,135,3.0,12.0,78,0.00,,SKC,0.00,VWS V14.01,2013-01-27 16:00:00,
2013-01-27 11:30:00,29.0,22.7,30.45,SE,135,4.0,11.0,77,0.00,,SKC,0.00,VWS V14.01,2013-01-27 16:30:00,
2013-01-27 12:00:00,30.3,23.3,30.44,SSE,158,3.0,9.0,75,0.00,,SKC,0.00,VWS V14.01,2013-01-27 17:00:00,
2013-01-27 12:30:00,31.0,23.7,30.42,SE,135,4.0,11.0,74,0.00,,SKC,0.00,VWS V14.01,2013-01-27 17:30:00,
2013-01-27 13:00:00,32.0,24.0,30.41,SE,135,4.0,10.0,72,0.00,,SKC,0.00,VWS V14.01,2013-01-27 18:00:00,
2013-01-27 13:30:00,31.9,23.9,30.38,SE,135,3.0,9.0,72,0.00,,SKC,0.00,VWS V14.01,2013-01-27 18:30:00,
2013-01-27 14:00:00,32.0,24.3,30.35,SE,135,4.0,10.0,73,0.00,,SKC,0.00,VWS V14.01,2013-01-27 19:00:00,
2013-01-27 14:42:00,32.8,23.1,30.34,ESE,104,11.0,11.0,67,0.00,,SKC,0.00,VWS V14.01,2013-01-27 19:42:00,
2013-01-27 14:47:00,32.8,22.7,30.31,SE,125,2.0,14.0,66,0.00,,SKC,0.00,VWS V14.01,2013-01-27 19:47:00,
2013-01-27 14:52:00,33.1,23.4,30.31,East,87,5.0,14.0,67,0.00,,SKC,0.00,VWS V14.01,2013-01-27 19:52:00,
2013-01-27 14:58:00,33.2,23.1,30.31,ESE,115,7.0,14.0,66,0.00,,SKC,0.00,VWS V14.01,2013-01-27 19:58:00,
2013-01-27 15:03:00,33.4,23.3,30.30,ESE,118,5.0,7.0,66,0.00,,SKC,0.00,VWS V14.01,2013-01-27 20:03:00,
2013-01-27 15:08:00,33.5,23.4,30.30,ESE,105,7.0,11.0,66,0.00,,SKC,0.00,VWS V14.01,2013-01-27 20:08:00,
2013-01-27 15:13:00,33.7,23.2,30.30,ENE,78,1.0,16.0,65,0.00,,SKC,0.00,VWS V14.01,2013-01-27 20:13:00,
2013-01-27 15:18:00,33.8,23.3,30.29,ESE,120,2.0,16.0,65,0.00,,SKC,0.00,VWS V14.01,2013-01-27 20:18:00,
2013-01-27 15:23:00,34.0,23.5,30.29,ESE,121,6.0,16.0,65,0.00,,SKC,0.00,VWS V14.01,2013-01-27 20:23:00,
2013-01-27 15:28:00,34.0,23.1,30.29,SE,146,2.0,16.0,64,0.00,,SKC,0.00,VWS V14.01,2013-01-27 20:28:00,
2013-01-27 15:33:00,34.1,23.6,30.28,East,93,2.0,7.0,65,0.00,,SKC,0.00,VWS V14.01,2013-01-27 20:33:00,
2013-01-27 15:38:00,34.1,23.2,30.28,ESE,120,11.0,11.0,64,0.00,,SKC,0.00,VWS V14.01,2013-01-27 20:38:00,
2013-01-27 15:43:00,34.1,23.2,30.28,SSE,166,4.0,12.0,64,0.00,,SKC,0.00,VWS V14.01,2013-01-27 20:43:00,
2013-01-27 15:48:00,34.1,23.2,30.28,ESE,110,9.0,12.0,64,0.00,,SKC,0.00,VWS V14.01,2013-01-27 20:48:00,
2013-01-27 15:53:00,34.1,23.2,30.28,SE,124,7.0,14.0,64,0.00,,SKC,0.00,VWS V14.01,2013-01-27 20:53:00,
2013-01-27 15:59:00,34.3,23.4,30.28,ESE,110,4.0,14.0,64,0.00,,SKC,0.00,VWS V14.01,2013-01-27 20:59:00,
2013-01-27 16:04:00,34.3,23.4,30.27,East,81,2.0,12.0,64,0.00,,SKC,0.00,VWS V14.01,2013-01-27 21:04:00,
2013-01-27 16:09:00,34.3,23.4,30.27,SSE,148,5.0,12.0,64,0.00,,SKC,0.00,VWS V14.01,2013-01-27 21:09:00,
2013-01-27 16:14:00,34.3,23.4,30.27,SE,131,3.0,14.0,64,0.00,,SKC,0.00,VWS V14.01,2013-01-27 21:14:00,
2013-01-27 16:19:00,34.3,23.0,30.27,SE,125,9.0,14.0,63,0.00,,SKC,0.00,VWS V14.01,2013-01-27 21:19:00,
2013-01-27 16:24:00,34.3,23.0,30.27,SSE,148,3.0,14.0,63,0.00,,SKC,0.00,VWS V14.01,2013-01-27 21:24:00,
2013-01-27 16:29:00,34.4,23.5,30.27,SE,124,0.0,14.0,64,0.00,,SKC,0.00,VWS V14.01,2013-01-27 21:29:00,
2013-01-27 16:34:00,34.4,23.1,30.26,ESE,108,6.0,9.0,63,0.00,,SKC,0.00,VWS V14.01,2013-01-27 21:34:00,
2013-01-27 16:40:00,34.6,23.3,30.26,SE,131,6.0,14.0,63,0.00,,SKC,0.00,VWS V14.01,2013-01-27 21:40:00,
2013-01-27 16:45:00,34.6,23.3,30.26,SE,135,5.0,15.0,63,0.00,,SKC,0.00,VWS V14.01,2013-01-27 21:45:00,
2013-01-27 16:50:00,34.7,23.4,30.26,East,86,5.0,15.0,63,0.00,,SKC,0.00,VWS V14.01,2013-01-27 21:50:00,
2013-01-27 16:55:00,34.7,23.4,30.26,SE,127,3.0,15.0,63,0.00,,SKC,0.00,VWS V14.01,2013-01-27 21:55:00,
2013-01-27 17:00:00,34.7,23.8,30.26,SE,141,3.0,15.0,64,0.00,,SKC,0.00,VWS V14.01,2013-01-27 22:00:00,
2013-01-27 17:05:00,34.7,23.8,30.26,SE,131,5.0,10.0,64,0.00,,SKC,0.00,VWS V14.01,2013-01-27 22:05:00,
2013-01-27 17:10:00,34.7,23.8,30.26,SE,136,3.0,10.0,64,0.00,,SKC,0.00,VWS V14.01,2013-01-27 22:10:00,
2013-01-27 17:15:00,34.7,24.1,30.25,ESE,118,9.0,10.0,65,0.00,,SKC,0.00,VWS V14.01,2013-01-27 22:15:00,
2013-01-27 17:20:00,34.7,24.1,30.25,SE,143,6.0,12.0,65,0.00,,SKC,0.00,VWS V14.01,2013-01-27 22:20:00,
2013-01-27 17:25:00,34.7,24.1,30.25,East,92,9.0,12.0,65,0.00,,SKC,0.00,VWS V14.01,2013-01-27 22:25:00,
2013-01-27 17:30:00,34.7,24.1,30.25,SE,129,6.0,12.0,65,0.00,,SKC,0.00,VWS V14.01,2013-01-27 22:30:00,
2013-01-27 17:35:00,34.7,24.1,30.25,SE,129,6.0,12.0,65,0.00,,SKC,0.00,VWS V14.01,2013-01-27 22:35:00,
2013-01-27 17:41:00,34.6,24.4,30.25,ESE,102,5.0,12.0,66,0.00,,SKC,0.00,VWS V14.01,2013-01-27 22:41:00,
2013-01-27 17:46:00,34.6,24.8,30.25,ESE,114,6.0,12.0,67,0.00,,SKC,0.00,VWS V14.01,2013-01-27 22:46:00,
2013-01-27 17:51:00,34.6,24.8,30.25,SSE,150,4.0,12.0,67,0.00,,SKC,0.00,VWS V14.01,2013-01-27 22:51:00,
2013-01-27 17:56:00,34.4,25.0,30.25,ESE,120,3.0,12.0,68,0.00,,SKC,0.00,VWS V14.01,2013-01-27 22:56:00,
2013-01-27 18:01:00,34.4,25.0,30.25,SE,140,4.0,5.0,68,0.00,,SKC,0.00,VWS V14.01,2013-01-27 23:01:00,
2013-01-27 18:06:00,34.4,25.3,30.25,ESE,119,1.0,12.0,69,0.00,,SKC,0.00,VWS V14.01,2013-01-27 23:06:00,
2013-01-27 18:11:00,34.4,25.6,30.25,SE,134,1.0,12.0,70,0.00,,SKC,0.00,VWS V14.01,2013-01-27 23:11:00,
2013-01-27 18:16:00,34.3,25.5,30.25,SE,129,6.0,12.0,70,0.00,,SKC,0.00,VWS V14.01,2013-01-27 23:16:00,
2013-01-27 18:21:00,34.3,25.5,30.25,ESE,119,1.0,12.0,70,0.00,,SKC,0.00,VWS V14.01,2013-01-27 23:21:00,
2013-01-27 18:26:00,34.3,25.5,30.25,ESE,117,6.0,12.0,70,0.00,,SKC,0.00,VWS V14.01,2013-01-27 23:26:00,
2013-01-27 18:31:00,34.3,25.9,30.25,ESE,114,2.0,7.0,71,0.00,,SKC,0.00,VWS V14.01,2013-01-27 23:31:00,
2013-01-27 18:36:00,34.3,26.2,30.25,SSE,153,2.0,11.0,72,0.00,,SKC,0.00,VWS V14.01,2013-01-27 23:36:00,
2013-01-27 18:41:00,34.3,26.6,30.25,SE,131,2.0,11.0,73,0.00,,SKC,0.00,VWS V14.01,2013-01-27 23:41:00,
2013-01-27 18:46:00,34.1,27.0,30.25,ESE,112,2.0,11.0,75,0.00,,SKC,0.00,VWS V14.01,2013-01-27 23:46:00,
2013-01-27 18:51:00,34.0,27.2,30.25,East,84,2.0,11.0,76,0.00,,SKC,0.00,VWS V14.01,2013-01-27 23:51:00,
2013-01-27 18:56:00,33.8,27.4,30.25,ESE,110,1.0,11.0,77,0.00,,SKC,0.00,VWS V14.01,2013-01-27 23:56:00,
2013-01-27 19:01:00,33.8,27.7,30.26,ESE,112,4.0,6.0,78,0.00,,SKC,0.00,VWS V14.01,2013-01-28 00:01:00,
2013-01-27 19:06:00,33.7,27.9,30.26,ESE,123,0.0,7.0,79,0.00,,SKC,0.00,VWS V14.01,2013-01-28 00:06:00,
2013-01-27 19:11:00,33.7,27.9,30.26,ESE,116,0.0,7.0,79,0.00,,SKC,0.00,VWS V14.01,2013-01-28 00:11:00,
2013-01-27 19:16:00,33.7,28.2,30.27,ESE,116,1.0,7.0,80,0.00,,SKC,0.00,VWS V14.01,2013-01-28 00:16:00,
2013-01-27 19:22:00,33.7,28.2,30.27,ESE,116,0.0,7.0,80,0.00,,SKC,0.00,VWS V14.01,2013-01-28 00:22:00,
2013-01-27 19:27:00,33.5,28.3,30.27,ESE,118,0.0,7.0,81,0.00,,SKC,0.00,VWS V14.01,2013-01-28 00:27:00,
2013-01-27 19:32:00,33.5,28.6,30.28,ESE,122,2.0,3.0,82,0.00,,SKC,0.00,VWS V14.01,2013-01-28 00:32:00,
2013-01-27 19:37:00,33.4,28.5,30.28,ESE,115,3.0,3.0,82,0.00,,SKC,0.00,VWS V14.01,2013-01-28 00:37:00,
2013-01-27 19:42:00,33.4,28.8,30.28,East,97,3.0,3.0,83,0.00,,SKC,0.00,VWS V14.01,2013-01-28 00:42:00,
2013-01-27 19:47:00,33.2,28.9,30.27,ESE,106,1.0,5.0,84,0.00,,SKC,0.00,VWS V14.01,2013-01-28 00:47:00,
2013-01-27 19:52:00,33.1,29.1,30.27,East,92,0.0,5.0,85,0.00,,SKC,0.00,VWS V14.01,2013-01-28 00:52:00,
2013-01-27 19:57:00,33.1,29.1,30.27,East,90,4.0,6.0,85,0.00,,SKC,0.00,VWS V14.01,2013-01-28 00:57:00,
2013-01-27 20:02:00,32.9,29.2,30.25,East,87,3.0,3.0,86,0.00,,SKC,0.00,VWS V14.01,2013-01-28 01:02:00,
2013-01-27 20:07:00,32.8,29.1,30.25,SE,131,3.0,4.0,86,0.00,,SKC,0.00,VWS V14.01,2013-01-28 01:07:00,
2013-01-27 20:12:00,32.8,29.4,30.25,East,92,3.0,7.0,87,0.00,,SKC,0.00,VWS V14.01,2013-01-28 01:12:00,
2013-01-27 20:17:00,32.8,29.6,30.24,ESE,105,6.0,7.0,88,0.00,,SKC,0.00,VWS V14.01,2013-01-28 01:17:00,
2013-01-27 20:22:00,32.8,29.6,30.24,East,87,2.0,7.0,88,0.00,,SKC,0.00,VWS V14.01,2013-01-28 01:22:00,
2013-01-27 20:27:00,32.8,29.9,30.24,ESE,103,3.0,7.0,89,0.00,,SKC,0.00,VWS V14.01,2013-01-28 01:27:00,
2013-01-27 20:33:00,32.8,29.9,30.22,ESE,113,1.0,7.0,89,0.00,,SKC,0.00,VWS V14.01,2013-01-28 01:33:00,
2013-01-27 20:38:00,32.8,29.9,30.22,ESE,105,6.0,7.0,89,0.00,,SKC,0.00,VWS V14.01,2013-01-28 01:38:00,
2013-01-27 20:43:00,32.8,29.9,30.22,East,86,3.0,7.0,89,0.00,,SKC,0.00,VWS V14.01,2013-01-28 01:43:00,
2013-01-27 20:48:00,32.8,30.2,30.21,ENE,57,2.0,7.0,90,0.00,,SKC,0.00,VWS V14.01,2013-01-28 01:48:00,
2013-01-27 20:53:00,32.9,30.3,30.21,NE,38,0.0,10.0,90,0.00,,SKC,0.00,VWS V14.01,2013-01-28 01:53:00,
2013-01-27 20:58:00,32.9,30.3,30.21,ESE,105,3.0,10.0,90,0.00,,SKC,0.00,VWS V14.01,2013-01-28 01:58:00,
2013-01-27 21:03:00,33.1,30.5,30.21,East,98,6.0,10.0,90,0.00,,SKC,0.00,VWS V14.01,2013-01-28 02:03:00,
2013-01-27 21:08:00,33.1,30.8,30.21,ENE,70,2.0,11.0,91,0.00,,SKC,0.00,VWS V14.01,2013-01-28 02:08:00,
2013-01-27 21:13:00,33.2,30.9,30.21,SE,128,6.0,12.0,91,0.00,,SKC,0.00,VWS V14.01,2013-01-28 02:13:00,
2013-01-27 21:18:00,33.4,31.1,30.20,East,93,7.0,13.0,91,0.00,,SKC,0.00,VWS V14.01,2013-01-28 02:18:00,
2013-01-27 21:23:00,33.5,31.2,30.20,SE,132,6.0,15.0,91,0.00,,SKC,0.00,VWS V14.01,2013-01-28 02:23:00,
2013-01-27 21:28:00,33.7,31.6,30.20,East,80,4.0,15.0,92,0.00,,SKC,0.00,VWS V14.01,2013-01-28 02:28:00,
2013-01-27 21:33:00,33.8,31.7,30.19,ESE,114,2.0,8.0,92,0.00,,SKC,0.00,VWS V14.01,2013-01-28 02:33:00,
2013-01-27 21:38:00,34.1,32.0,30.19,ESE,110,6.0,16.0,92,0.00,,SKC,0.00,VWS V14.01,2013-01-28 02:38:00,
2013-01-27 21:44:00,34.4,32.3,30.19,ESE,114,4.0,16.0,92,0.00,,SKC,0.00,VWS V14.01,2013-01-28 02:44:00,
2013-01-27 21:49:00,34.6,32.5,30.17,SSE,149,4.0,16.0,92,0.00,,SKC,0.00,VWS V14.01,2013-01-28 02:49:00,
2013-01-27 21:54:00,34.7,32.6,30.17,SE,128,8.0,18.0,92,0.00,,SKC,0.00,VWS V14.01,2013-01-28 02:54:00,
2013-01-27 21:59:00,34.7,32.6,30.17,SE,143,4.0,18.0,92,0.00,,SKC,0.00,VWS V14.01,2013-01-28 02:59:00,
2013-01-27 22:04:00,34.9,32.8,30.16,SE,132,2.0,15.0,92,0.00,,SKC,0.00,VWS V14.01,2013-01-28 03:04:00,
2013-01-27 22:09:00,34.9,32.8,30.16,SE,144,6.0,15.0,92,0.00,,SKC,0.00,VWS V14.01,2013-01-28 03:09:00,
2013-01-27 22:14:00,34.9,33.1,30.16,ESE,110,4.0,15.0,93,0.00,,SKC,0.00,VWS V14.01,2013-01-28 03:14:00,
2013-01-27 22:19:00,35.0,33.2,30.14,ESE,122,7.0,15.0,93,0.00,,SKC,0.00,VWS V14.01,2013-01-28 03:19:00,
2013-01-27 22:24:00,35.2,33.4,30.14,ESE,109,3.0,15.0,93,0.00,,SKC,0.00,VWS V14.01,2013-01-28 03:24:00,
2013-01-27 22:29:00,35.5,33.7,30.14,SE,139,2.0,18.0,93,0.00,,SKC,0.00,VWS V14.01,2013-01-28 03:29:00,
2013-01-27 22:34:00,35.8,34.0,30.12,SE,137,6.0,16.0,93,0.00,,SKC,0.00,VWS V14.01,2013-01-28 03:34:00,
2013-01-27 22:39:00,36.0,34.2,30.12,SE,140,14.0,18.0,93,0.00,,SKC,0.00,VWS V14.01,2013-01-28 03:39:00,
2013-01-27 22:44:00,36.0,34.2,30.12,SSE,167,0.0,18.0,93,0.00,,SKC,0.00,VWS V14.01,2013-01-28 03:44:00,
2013-01-27 22:50:00,36.2,34.4,30.12,SE,130,1.0,18.0,93,0.00,,SKC,0.00,VWS V14.01,2013-01-28 03:50:00,
2013-01-27 22:55:00,36.3,34.5,30.12,ESE,107,12.0,18.0,93,0.00,,SKC,0.00,VWS V14.01,2013-01-28 03:55:00,
2013-01-27 23:00:00,36.6,35.0,30.12,SE,144,7.0,18.0,94,0.00,,SKC,0.00,VWS V14.01,2013-01-28 04:00:00,
2013-01-27 23:05:00,36.8,35.2,30.12,SE,134,6.0,14.0,94,0.00,,SKC,0.00,VWS V14.01,2013-01-28 04:05:00,
2013-01-27 23:10:00,36.9,35.3,30.12,SE,142,10.0,14.0,94,0.00,,SKC,0.00,VWS V14.01,2013-01-28 04:10:00,
2013-01-27 23:15:00,37.0,35.4,30.11,SE,146,6.0,14.0,94,0.00,,SKC,0.00,VWS V14.01,2013-01-28 04:15:00,
2013-01-27 23:20:00,37.2,35.6,30.11,SE,133,2.0,14.0,94,0.01,,SKC,0.01,VWS V14.01,2013-01-28 04:20:00,
2013-01-27 23:25:00,37.2,35.6,30.11,SSW,212,6.0,14.0,94,0.01,,SKC,0.01,VWS V14.01,2013-01-28 04:25:00,
2013-01-27 23:30:00,37.3,35.7,30.10,SSE,149,5.0,14.0,94,0.01,,SKC,0.01,VWS V14.01,2013-01-28 04:30:00,
2013-01-27 23:35:00,37.5,35.9,30.10,East,92,1.0,8.0,94,0.01,,SKC,0.01,VWS V14.01,2013-01-28 04:35:00,
2013-01-27 23:40:00,37.6,36.0,30.10,SE,127,7.0,11.0,94,0.01,,SKC,0.01,VWS V14.01,2013-01-28 04:40:00,
2013-01-27 23:45:00,37.8,36.2,30.12,NNE,17,0.0,11.0,94,0.01,,SKC,0.01,VWS V14.01,2013-01-28 04:45:00,
2013-01-27 23:50:00,37.9,36.3,30.12,SSE,149,0.0,13.0,94,0.01,,SKC,0.01,VWS V14.01,2013-01-28 04:50:00,
2013-01-27 23:55:00,38.0,36.4,30.12,SSE,148,1.0,13.0,94,0.01,,SKC,0.01,VWS V14.01,2013-01-28 04:55:00,